Regional Weather Roundup
Issued by NWS Kansas City/Pleasant Hill, MO

Home | Current Version | Previous Version | Graphics & Text | Print | Product List | Glossary Off
Versions: 1 2 3 4 5 6 7 8 9 10 11 12 13 14 15 16 17 18 19 20 21 22 23 24 25 26 27 28 29 30 31 32 33 34 35 36 37 38 39 40 41 42 43 44 45 46 47 48 49 50

000
ASUS43 KEAX 290010
RWREAX

WEATHER ROUNDUP FOR EASTERN KANSAS AND NORTHWEST MISSOURI
NATIONAL WEATHER SERVICE KANSAS CITY/PLEASANT HILL MO
700 PM CDT THU MAY 28 2015

KSZ040-057-103>105-MOZ028-029-037-043-290100-
...KANSAS CITY METROPOLITAN AREA...

CITY           SKY/WX    TMP DP  RH WIND       PRES   REMARKS
K.C. INTL      CLOUDY    71  65  81 SE10      29.97S
6HR MIN TEMP:  67; 6HR MAX TEMP:  72; 6HR PCP: TRACE;

K.C. DOWNTOWN  CLOUDY    73  61  65 SE5       29.96F
6HR MIN TEMP:  69; 6HR MAX TEMP:  73; 6HR PCP:  0.07;

LEES SUMMIT    CLOUDY    71  61  70 SE5       29.98F
6HR MIN TEMP:  68; 6HR MAX TEMP:  73; 6HR PCP:  0.16;

OLATHE - IXD   PTSUNNY   70  63  78 SE10      29.98S
6HR MIN TEMP:  68; 6HR MAX TEMP:  72; 6HR PCP:  0.06;

OLATHE - OJC   CLOUDY    70  63  78 SE8       29.96F
6HR MIN TEMP:  66; 6HR MAX TEMP:  72; 6HR PCP:  0.29;

LAWRENCE       MOSUNNY   73  64  73 SE10      29.94F

$$

MOZ001>008-011>017-020>025-030>033-038>040-044>046-053-054-290100-
...NORTHERN AND CENTRAL MISSOURI...

CITY           SKY/WX    TMP DP  RH WIND       PRES   REMARKS
ST. JOSEPH     CLOUDY    73  64  73 S10       29.96S
6HR MIN TEMP:  69; 6HR MAX TEMP:  74;

MOSBY          CLOUDY    70  64  83 E6        29.98S
WARRENSBURG    CLOUDY    68  64  88 SE3       30.00S
WHITEMAN AFB   PTSUNNY   68  66  94 SE5       30.00S
6HR MIN TEMP:  66; 6HR MAX TEMP:  79; 6HR PCP:  0.56;

CLINTON        CLOUDY    70  66  88 E5        30.01F
SEDALIA        CLOUDY    71  64  78 SE6       30.03F
6HR MIN TEMP:  69; 6HR MAX TEMP:  82; 6HR PCP:  0.03;

WARSAW         NOT AVBL
CHILLICOTHE      N/A     71  65  81 VRB3      29.99F
6HR MIN TEMP:  71; 6HR MAX TEMP:  78;

KIRKSVILLE     LGT RAIN  66  65  96 E8        30.05F
6HR MIN TEMP:  65; 6HR MAX TEMP:  80; 6HR PCP:  0.38;


$$

MOZ041-047>049-056>058-063>065-088>090-097-290100-
...EASTERN AND SOUTHERN MISSOURI...

CITY           SKY/WX    TMP DP  RH WIND       PRES   REMARKS
ST. LOUIS INTL PTSUNNY   82  65  56 S10       30.04S
6HR MIN TEMP:  73; 6HR MAX TEMP:  86; 6HR PCP: TRACE;

SPIRIT OF STL  MOSUNNY  N/A N/A N/A SE3       30.03S
COLUMBIA       CLOUDY    72  64  76 N7        30.04F
JEFFERSON CITY CLOUDY    71  67  87 N6        30.02F
ROLLA          PTSUNNY   74  64  71 SE6       30.02F
OSAGE BEACH    CLOUDY    64  63  94 CALM      30.03F
SPRINGFIELD    CLOUDY    71  67  87 NE7       30.00F
BRANSON        CLOUDY    73  66  78 S7        30.02S
JOPLIN         MOSUNNY   76  64  66 S8        29.97F
WEST PLAINS    CLOUDY    74  65  73 SE8G16    30.04F

$$

IAZ060-094-KSZ022-034>040-054-083-096-NEZ052-066-093-290100-
...KANSAS...SOUTHEAST NEBRASKA AND IOWA...

CITY           SKY/WX    TMP DP  RH WIND       PRES   REMARKS
TOPEKA         SUNNY     76  64  66 SE9       29.93F
6HR MIN TEMP:  69; 6HR MAX TEMP:  76; 6HR PCP: TRACE;

MANHATTAN      SUNNY     77  63  61 S7        29.91F
EMPORIA        SUNNY     75  63  66 S13       29.92F
CHANUTE        MOSUNNY   75  65  70 S12       29.94F
WICHITA        PTSUNNY   78  62  57 S12       29.91R
OMAHA          CLOUDY    72  63  73 SE17      29.92F
LINCOLN        PTSUNNY   76  66  71 SE13      29.90S
FALLS CITY     CLOUDY    73  63  70 S10       29.93S
LAMONI         CLOUDY    75  64  68 SE7       29.98F
DES MOINES     CLOUDY    74  63  68 SE13      29.98F

$$



USA.gov is the U.S. government's official web portal to all federal, state and local government web resources and services.